Location: Biltmore Gardens
(41.6070°N, 83.4666°W)
Time: 05:49:54
(UTC+00:00)

A-11 Canister half - Pass Details

Date: 19 April 2021
Orbit: 1526 x 1683 km, 47.3° (Epoch: 11 May)

Event Time Altitude Azimuth Distance (km) Brightness Sun altitude
Rises 04:13:39 0° 297° (WNW) 4,938 12.3 -34.1°
Reaches altitude 10° 04:17:03 10° 291° (WNW) 3,941 11.6 -34.3°
Enters shadow 04:25:34 41° 234° (SW) 2,266 9.6 -34.9°
